Schleswig Jagel, Germany

1:08 PM CEST on May 29, 2017 (GMT +0200)
Schleswig Air Base

Weather History for ETNS - December, 2012

Change the Weather History Date:

Tuesday, December 11, 2012

  Actual Average Record
Temperature  
Mean Temperature 20 °F -  
Max Temperature 30 °F - - ()
Min Temperature 10 °F - - ()
Degree Days  
Heating Degree Days 45    
Moisture  
Dew Point 19 °F    
Average Humidity 85    
Maximum Humidity 100    
Minimum Humidity 74    
Precipitation  
Precipitation 0.00 in - - ()
Sea Level Pressure  
Sea Level Pressure 30.18 in    
Wind  
Wind Speed 9 mph ()    
Max Wind Speed 16 mph    
Max Gust Speed -    
Visibility 5.3 miles    
Events Fog    
T = Trace of Precipitation, MM = Missing Value Source: Averaged Metar Reports

Daily Weather History Graph

Daily Weather History Graph

Search for Another Location

Airport or City:

Trip Planner

Search our weather history database for the weather conditions in past years. The results will help you decide how hot, cold, wet, or windy it might be!

Date:

Astronomy

Dec. 11, 2012 Rise Set
Actual Time 8:33 AM CET 3:56 PM CET
Civil Twilight 7:49 AM CET 4:40 PM CET
Nautical Twilight 7:02 AM CET 5:27 PM CET
Astronomical Twilight 6:19 AM CET 6:11 PM CET
Moon 5:57 AM CET (12/11) 2:31 PM CET (12/11)
Length of Visible Light 8h 51m
Length of Day
7h 22m
Waning Crescent, 5% of the Moon is Illuminated
Dec 11
Waning Crescent
Dec 13
New
Dec 20
First Quarter
Dec 28
Full
Jan 5
Last Quarter

Hourly Weather History & Observations

Time (CET) Temp. Windchill Dew Point Humidity Pressure Visibility Wind Dir Wind Speed Gust Speed Precip Events Conditions
12:20 AM 30.2 °F 20.2 °F 26.6 °F 86% 30.15 in 6.2 mi NNE 12.7 mph - N/A   Partly Cloudy
1:20 AM 30.2 °F 22.6 °F 26.6 °F 86% 30.15 in 6.2 mi North 8.1 mph - N/A   Mostly Cloudy
2:20 AM 30.2 °F 19.8 °F 26.6 °F 86% 30.15 in 6.2 mi North 13.8 mph - N/A   Mostly Cloudy
3:20 AM 30.2 °F 18.9 °F 24.8 °F 80% 30.18 in 6.2 mi North 16.1 mph - N/A   Mostly Cloudy
4:20 AM 30.2 °F 18.9 °F 24.8 °F 80% 30.18 in 6.2 mi NNE 16.1 mph - N/A   Mostly Cloudy
5:20 AM 26.6 °F 17.5 °F 21.2 °F 80% 30.18 in 6.2 mi NNW 9.2 mph - N/A   Mostly Cloudy
6:20 AM 28.4 °F 18.0 °F 21.2 °F 74% 30.21 in 6.2 mi North 12.7 mph - N/A   Mostly Cloudy
7:20 AM 28.4 °F 18.5 °F 21.2 °F 74% 30.21 in 6.2 mi North 11.5 mph - N/A   Mostly Cloudy
8:20 AM 26.6 °F 16.2 °F 21.2 °F 80% 30.21 in 6.2 mi NW 11.5 mph - N/A   Mostly Cloudy
9:20 AM 26.6 °F 15.7 °F 21.2 °F 80% 30.21 in 6.2 mi NNW 12.7 mph - N/A   Mostly Cloudy
9:21 AM 26.6 °F 15.7 °F 21.2 °F 80% 30.21 in 6.2 mi NNW 12.7 mph - N/A   Mostly Cloudy
10:20 AM 26.6 °F 16.8 °F 21.2 °F 80% 30.21 in 6.2 mi NW 10.4 mph - N/A   Scattered Clouds
11:20 AM 23.0 °F 12.4 °F 19.4 °F 86% 30.21 in 6.2 mi NW 10.4 mph - N/A   Scattered Clouds
12:20 PM 24.8 °F 14.0 °F 19.4 °F 80% 30.21 in 6.2 mi NW 11.5 mph - N/A   Mostly Cloudy
1:20 PM 24.8 °F 15.3 °F 21.2 °F 86% 30.21 in 6.2 mi NW 9.2 mph - N/A   Mostly Cloudy
2:20 PM 24.8 °F 16.9 °F 19.4 °F 80% 30.21 in 6.2 mi NW 6.9 mph - N/A   Scattered Clouds
3:20 PM 23.0 °F 14.7 °F 19.4 °F 86% 30.18 in 6.2 mi NW 6.9 mph - N/A   Partly Cloudy
4:20 PM 19.4 °F 10.4 °F 17.6 °F 93% 30.18 in 6.2 mi West 6.9 mph - N/A   Partly Cloudy
5:20 PM 17.6 °F 10.7 °F 15.8 °F 93% 30.18 in 6.2 mi WNW 4.6 mph - N/A   Partly Cloudy
6:20 PM 17.6 °F 10.7 °F 15.8 °F 93% 30.18 in 6.2 mi West 4.6 mph - N/A   Unknown
7:20 PM 17.6 °F 12.3 °F 15.8 °F 93% 30.18 in 6.2 mi West 3.5 mph - N/A Fog Shallow Fog
8:20 PM 12.2 °F 6.1 °F 12.2 °F 100% 30.18 in 0.5 mi West 3.5 mph - N/A Fog Light Freezing Fog
9:20 PM 10.4 °F - 8.6 °F 92% 30.15 in 0.5 mi Calm Calm - N/A Fog Light Freezing Fog
10:20 PM 10.4 °F - 8.6 °F 92% 30.15 in 0.6 mi SW 2.3 mph - N/A Fog Light Freezing Fog
11:20 PM 10.4 °F - 6.8 °F 85% 30.15 in 0.3 mi SW 1.2 mph - N/A Fog Light Freezing Fog